Regional Weather Roundup
Issued by NWS

Home | Current Version | Previous Version | Text Only | Print | Product List | Glossary Off
Versions: 1 2 3 4 5 6 7 8 9 10 11 12 13 14 15 16 17 18 19 20 21 22 23 24 25 26 27 28 29 30 31 32 33 34 35 36 37 38 39 40 41 42 43 44 45 46 47 48 49 50

000
ASUS43 KOAX 151910
RWRNE

WEATHER ROUNDUP FOR NEBRASKA
NATIONAL WEATHER SERVICE OMAHA NE
200 PM CDT MON SEP 15 2014

NOTES: SATELLITE DATA IS BEING USED TO AUGMENT CLOUD COVER ABOVE
       12000 FEET.
       "FAIR" INDICATES FEW OR NO CLOUDS BELOW 12,000 FEET WITH NO
       SIGNIFICANT WEATHER AND/OR OBSTRUCTIONS TO VISIBILITY.

  * THESE STATIONS DO NOT REPORT WEATHER SUCH AS RAIN...SNOW OR FOG.

NEZ001>004-019>022-054>056-152000-
NEBRASKA PANHANDLE

CITY           SKY/WX    TMP DP  RH WIND       PRES   REMARKS
SCOTTSBLUFF    SUNNY     63  46  54 SE12G18   30.29F
ALLIANCE       SUNNY     61  43  51 SE10      30.29F
CHADRON        SUNNY     64  44  48 S7        30.26F
KIMBALL        SUNNY     65  42  43 S9G16     30.30F
SIDNEY         SUNNY     63  42  46 E10       30.33F
$$

NEZ057>060-069>072-079>082-152000-
SOUTHWEST NEBRASKA

CITY           SKY/WX    TMP DP  RH WIND       PRES   REMARKS
NORTH PLATTE   SUNNY     64  41  42 NE8       30.30F
IMPERIAL       SUNNY     62  42  47 VRB5      30.31F
LEXINGTON      SUNNY     64  45  51 E13       30.29F
MCCOOK         SUNNY     67  45  45 N10G20    30.30S
OGALLALA       SUNNY     63  43  48 E5        30.31F
$$

NEZ005>010-023>029-035>040-094-152000-
NORTH CENTRAL NEBRASKA

CITY           SKY/WX    TMP DP  RH WIND       PRES   REMARKS
VALENTINE      SUNNY     62  35  36 VRB5      30.30F
AINSWORTH      SUNNY     60  37  42 NE9       30.30F
BROKEN BOW     SUNNY     65  40  39 NE9       30.29F
O`NEILL        SUNNY     61  41  48 NE10      30.30S
ORD            SUNNY     62  42  47 N9        30.28F
THEDFORD       SUNNY     63  39  41 N8        30.31F
$$

NEZ041-046>049-061>064-073>077-083>087-152000-
SOUTH CENTRAL NEBRASKA

CITY           SKY/WX    TMP DP  RH WIND       PRES   REMARKS
GRAND ISLAND   SUNNY     65  43  44 N16G23    30.28R
AURORA         SUNNY     64  42  44 NE7G17    30.27S
HASTINGS       SUNNY     64  43  46 NE13G22   30.27S
HEBRON         SUNNY     68  47  46 N15G23    30.23S
HOLDREGE       SUNNY     63  44  50 NE12      30.28S
KEARNEY *      SUNNY     64  45  48 N13G18    30.29S
YORK           SUNNY     63  46  55 NE14      30.26S
$$

NEZ011>018-030>034-042>045-152000-
NORTHEAST NEBRASKA

CITY           SKY/WX    TMP DP  RH WIND       PRES   REMARKS
NORFOLK        MOSUNNY   62  42  47 N18G24    30.27S
ALBION         SUNNY     61  42  50 N10       30.28S
BLAIR          PTSUNNY   63  48  57 N15G22    30.23S
COLUMBUS *     MOSUNNY   63  45  51 N15       30.27S
FREMONT        PTSUNNY   63  46  53 N13       30.26S
TEKAMAH        PTSUNNY   63  45  51 N16G26    30.25S
WAYNE          PTSUNNY   62  43  48 N12G18    30.27S
$$

NEZ050>053-065>068-078-088>093-152000-
SOUTHEAST NEBRASKA

CITY           SKY/WX    TMP DP  RH WIND       PRES   REMARKS
LINCOLN        MOSUNNY   65  48  54 N15G25    30.25R
OMAHA EPPLEY   PTSUNNY   63  47  55 N14       30.23R
BEATRICE       SUNNY     67  50  54 N17G26    30.22S
FALLS CITY     SUNNY     68  55  63 N16       30.17S
NEBRASKA CITY  CLOUDY    63  45  51 N17G24    30.21S
PLATTSMOUTH    CLOUDY    62  48  60 N12G17    30.22S
$$

NEZ044-045-051>053-067-152000-
OMAHA AREA

CITY           SKY/WX    TMP DP  RH WIND       PRES   REMARKS
OMAHA EPPLEY   PTSUNNY   63  47  55 N14       30.23R
BLAIR          PTSUNNY   63  48  57 N15G22    30.23S
FREMONT        PTSUNNY   63  46  53 N13       30.26S
MILLARD        CLOUDY    62  48  59 N9        30.23S
OFFUTT AFB     PTSUNNY   62  52  69 N12       30.22S
PLATTSMOUTH    CLOUDY    62  48  60 N12G17    30.22S
WAHOO          MOCLDY    63  44  49 N13G18    30.24S
$$



USA.gov is the U.S. government's official web portal to all federal, state and local government web resources and services.